Location: Prairie Dale
(45.6972°N, 104.5033°W)
Time: 06:45:13
(UTC+00:00)

EO-79 - Pass Details

Date: 01 July 2022
Orbit: 588 x 603 km, 98.0° (Epoch: 15 August)

Event Time Altitude Azimuth Distance (km) Brightness Sun altitude
Rises 07:25:12 0° 33° (NNE) 2,856 ? -21.0°
Reaches altitude 10° 07:28:35 10° 62° (ENE) 1,950 ? -20.9°
Maximum altitude 07:30:30 13° 89° (E) 1,772 ? -20.9°
Enters shadow 07:32:00 11° 111° (ESE) 1,883 ? -20.9°
